Flight Track Log - Related Links

Times and Time Zones

All times are in EDT time to prevent confusion due to time zone crossing. See the SKW5502 flight status page for this flight to view local times or setup timezone preferences in your user account.

Time Position Orientation Groundspeed Altitude Reporting Facility
EDT Latitude Longitude Course Direction KTS MPH feet Rate Location/Type
Tue 10:20:22 AM 41.3714 -90.5058 114° Southeast 235 270 7,000  Level Chicago Center
Tue 10:21:24 AM 41.3736 -90.4053 88° East 255 293 9,200 1,452 Climbing Chicago Center
Tue 10:22:26 AM 41.3811 -90.2958 85° East 291 335 10,000 1,742 Climbing Chicago Center
Tue 10:23:28 AM 41.3914 -90.1547 84° East 312 359 12,800 2,323 Climbing Chicago Center
Tue 10:24:00 AM 41.4333 -89.9253 90° East  Level FlightAware Approximate
Tue 10:24:30 AM 41.3997 -90.0339 85° East 325 374 14,800  Level Chicago Center
Tue 10:25:32 AM 41.4083 -89.9108 85° East 333 383 15,000 144 Climbing Chicago Center
Tue 10:26:35 AM 41.4169 -89.7881 85° East 333 383 15,100 -864 Climbing Chicago Center
Tue 10:27:37 AM 41.4233 -89.6706 86° East 324 373 13,200 -1,452 Descending Chicago Center
Tue 10:28:39 AM 41.4306 -89.5558 85° East 316 364 12,100 -532 Descending Chicago Center
Tue 10:29:41 AM 41.4431 -89.4200 83° East 310 357 12,100  Level Chicago Center
Tue 10:30:43 AM 41.4553 -89.3044 82° East 310 357 12,100  Level Chicago Center
Tue 10:31:45 AM 41.4650 -89.1869 84° East 316 364 12,100  Level Chicago Center
Tue 10:32:47 AM 41.4772 -89.0686 82° East 319 367 12,100  Level Chicago Center
Tue 10:33:49 AM 41.4889 -88.9528 82° East 319 367 12,100 -48 Level Chicago Center
Tue 10:34:51 AM 41.5028 -88.8119 82° East 350 403 12,000 -48 Descending Chicago Center
Tue 10:35:53 AM 41.5272 -88.6675 77° East 373 429 12,000  Level Chicago Center
Tue 10:36:56 AM 41.5844 -88.5581 55° Northeast 360 414 12,000 -672 Level Chicago Center
Tue 10:37:58 AM 41.6439 -88.4450 55° Northeast 346 398 10,600 -968 Descending Chicago Center
Tue 10:39:00 AM 41.6978 -88.3431 55° Northeast 338 389 10,000 -290 Descending Chicago Center
Tue 10:40:02 AM 41.7525 -88.2386 55° Northeast 341 392 10,000  Level Chicago Center
Tue 10:41:04 AM 41.8028 -88.1181 61° Northeast 350 403 10,000  Level Chicago Center
Tue 10:42:06 AM 41.8353 -87.9933 71° East 354 407 10,000  Level Chicago Center
Tue 10:43:08 AM 41.8692 -87.8583 71° East 354 407 10,000 -242 Level Chicago Center
Tue 10:44:10 AM 41.8825 -87.7403 81° East 311 358 9,500 -1,152 Descending Chicago Center
Tue 10:45:13 AM 41.8833 -87.6319 89° East 291 335 7,600 -1,920 Descending Chicago Center
Tue 10:46:15 AM 41.8833 -87.5217 90° East 278 320 5,500 -1,258 Descending Chicago Center
Tue 10:47:17 AM 41.8833 -87.4264 90° East 255 293 5,000 -242 Descending Chicago Center
Tue 10:48:19 AM 41.9092 -87.3778 54° Northeast 174 200 5,000  Level Chicago Center
Tue 10:49:21 AM 41.9422 -87.4111 323° Northwest 174 200 5,000  Level Chicago Center
Tue 10:50:23 AM 41.9589 -87.4769 289° West 174 200 5,000  Level Chicago Center
Tue 10:51:25 AM 41.9658 -87.5422 278° West 175 201 5,000 -97 Level Chicago Center
Tue 10:52:27 AM 41.9658 -87.6169 270° West 183 211 4,800 -581 Descending Chicago Center
Tue 10:53:29 AM 41.9656 -87.6881 270° West 189 217 3,800 -1,016 Descending Chicago Center
Tue 10:54:31 AM 41.9653 -87.7622 270° West 187 215 2,700 -919 Descending Chicago Center
Tue 10:55:33 AM 41.9658 -87.8147 271° West 143 165 1,900 -768 Descending Chicago Center
Tue 10:56:36 AM 41.9650 -87.8631 269° West 133 153 1,100 -484 Descending Chicago Center
Tue 10:57:37 AM 41.9650 -87.9108 270° West 133 153 900 -197 Descending Chicago Center

Login

Don't have an account? Register now (free) for customized features, flight alerts, and more!